www.pogodaiklimat.ru

Погода и климат >> Архив погоды >> Россия >> Саратовская область >> Росташи


ПОГОДА в Росташах

  • Прогноз погоды в Росташах
  • Монитор погоды в Росташах

АРХИВ ПОГОДЫ в Росташах

Время (UTC), дата Ветер
(напр.,м/с)
 
Видим.   Явления Облачность Т
(С)
Тd
(С)
f
(%)
Тe
(С)
Тes
(С)
Комфортность P
(гПа)
Po
(гПа)
Тmin
(С)
Tmax
(С)
R
(мм)
R24
(мм)
S
(см)
06 16.08 ЮВ 3 22 км 10/0
[Ac cast Cc]
+26.6 +17.0 56 +31 +35 душно 1011.6 993.4
09 16.08 Ю 5 23 км 10/0
[Ci]
+30.2 +16.2 43 +33 +39 душно 1010.1 992.2
12 16.08 ЮЗ 3 24 км 10/3 1000 м
[Cu med, cong Ac trans Ci]
+29.2 +17.3 49 +33 +36 очень
душно
1009.8 991.8
15 16.08 Ю 1 24 км 10/4 600 м
[Sc Ac und]
+27.0 +18.1 58 +32 +32 очень
душно
1009.5 991.4 +30.6
18 16.08 ЮВ 2 21 км 10/0
[Ac lent]
+22.7 +15.9 65 +27 +27 душно 1010.5 992.0
21 16.08 ЮВ 2 24 км 10/0
[Ac lent]
+21.9 +14.0 61 +25 +25 комфорт 1009.9 991.4
00 17.08 В 2 22 км 10/0
[Ac lent]
+21.9 +13.8 60 +25 +25 комфорт 1009.7 991.3
03 17.08 В 2 20 км {дождь} 10/0
[Ac As]
+19.8 +15.6 77 +23 +23 комфорт 1010.2 991.6 +19.3 0.3
06 17.08 ЮВ 4 21 км {дождь} 10/0
[Ac As]
+22.0 +14.2 61 +25 +27 комфорт 1010.5 992.0
09 17.08 Ю 3 23 км {дождь} 10/0
[Ac As]
+23.8 +14.9 57 +27 +30 жарко 1011.2 992.8
12 17.08 В 2 25 км {дождь} 9/0
[Ac und]
+26.0 +14.9 50 +29 +32 душно 1010.2 992.0
15 17.08 ЮВ 3 18 км слаб. дождь 10/0
[As op]
+24.5 +15.4 57 +27 +28 жарко 1009.1 990.8 +26.6 0.0
18 17.08 С 2 20 км {дождь} 10/0
[Ac und]
+21.9 +15.1 65 +25 +25 комфорт 1008.6 990.2
21 17.08 штиль 0 20 км 8/0
[Ac As]
+19.4 +15.8 80 +21 +21 комфорт 1008.8 990.2
00 18.08 штиль 0 21 км ясно +18.4 +13.9 75 +19 +19 1009.9 991.2
03 18.08 штиль 0 9000 м дымка 6/0
[Ac trans Ci fib]
+17.3 +13.9 80 +17 +18 1010.6 991.8 +15.2 0.0
06 18.08 штиль 0 23 км 8/0
[Ci fib]
+23.5 +15.5 61 +27 +35 душно 1011.2 992.8
09 18.08 Ю 3 24 км 10/0
[Ci fib]
+27.3 +16.1 50 +31 +39 душно 1011.2 993.0
12 18.08 ЮЗ 4 25 км 10/1 600 м
[Cu med, cong Ac lent Ci fib]
+29.1 +18.1 52 +34 +36 очень
душно
1011.3 993.3
15 18.08 З 1 10 км гроза, ливневой дождь 10/10 300 м
[Cb cap]
+21.0 +20.9 99 +27 +27 душно 1012.8 994.3 +29.1 1
18 18.08 В 2 22 км {гроза, ливн. осадки} 9/4 600 м
[Sc diur, vesp Ac cuf]
+20.2 +19.2 94 +24 +24 комфорт 1013.9 995.3
21 18.08 штиль 0 18 км слаб. дождь 10/4 600 м
[Sc As op]
+19.1 +18.8 98 +21 +21 комфорт 1015.5 996.8
00 19.08 В 2 21 км {дождь} 3/0
[Ac trans]
+18.6 +17.8 95 +20 +20 1014.4 995.7
03 19.08 С 1 21 км 10/0
[Ac trans Cc]
+17.9 +16.5 92 +19 +19 1015.4 996.6 +17.2 2
06 19.08 штиль 0 23 км 10/0
[Ci fib]
+24.5 +17.2 64 +28 +36 душно 1015.5 997.1
09 19.08 штиль 0 24 км 8/0
[Ci fib]
+27.9 +17.2 52 +32 +47 душно 1015.9 997.8
12 19.08 ЮЗ 1 25 км 8/0
[Ci fib]
+29.7 +16.8 46 +33 +41 душно 1016.0 997.9
15 19.08 С 1 24 км 10/0
[Ac und]
+26.3 +17.9 60 +31 +31 душно 1016.4 998.1 +30.3
18 19.08 С 1 23 км 4/0
[Ci fib]
+22.5 +20.2 87 +29 +29 очень
душно
1018.4 999.9
21 19.08 СВ 1 22 км ясно +19.4 +16.7 84 +22 +22 комфорт 1019.3 1000.6
00 20.08 СВ 1 21 км ясно +18.1 +16.3 89 +19 +19 1019.6 1000.7
03 20.08 С 1 23 км 4/0
[Ci fib]
+17.5 +16.5 94 +19 +19 1019.8 1000.9 +17.4
06 20.08 СВ 4 24 км 9/0
[Ci fib]
+23.3 +17.2 69 +29 +33 душно 1019.8 1001.3
09 20.08 С 3 25 км 10/0
[Cc]
+26.2 +19.5 67 +32 +40 очень
душно
1019.7 1001.4
12 20.08 С 3 26 км 10/0
[Ac lent Ci fib]
+25.4 +17.7 62 +30 +31 душно 1019.6 1001.2
15 20.08 С 3 25 км 6/0
[Ci fib]
+24.8 +15.5 56 +28 +28 жарко 1019.9 1001.4 +26.6
18 20.08 штиль 0 24 км зарница 3/3 600 м
[Cb cap]
+20.3 +17.1 82 +23 +23 комфорт 1020.8 1002.1
21 20.08 штиль 0 23 км ясно +18.0 +17.0 94 +18 +18 1021.6 1002.7
00 21.08 С 1 22 км ясно +16.7 +15.0 90 +18 +18 1021.5 1002.5
03 21.08 С 2 22 км ясно +16.5 +14.5 88 +17 +17 1022.2 1003.2 +15.6
06 21.08 СВ 4 24 км ясно +23.0 +16.9 69 +28 +33 душно 1022.1 1003.5
09 21.08 СВ 3 25 км 3/3 1000 м
[Cu med, cong]
+26.7 +16.5 54 +30 +38 душно 1021.5 1003.1
12 21.08 СВ 5 26 км 1/1 600 м
[Cu med, cong]
+27.6 +14.6 45 +30 +34 жарко 1020.8 1002.5
15 21.08 СВ 3 25 км 3/0
[Ci fib]
+26.5 +14.4 47 +29 +29 жарко 1020.6 1002.2 +27.9
18 21.08 штиль 0 24 км ясно +20.3 +14.8 71 +23 +23 комфорт 1021.5 1002.7
21 21.08 СВ 3 23 км ясно +18.8 +14.4 76 +20 +20 1021.6 1002.7
00 22.08 СВ 2 22 км ясно +16.0 +14.0 88 +16 +16 1021.8 1002.7
03 22.08 СВ 2 9000 м дымка ясно +15.4 +14.1 92 +15 +16 1022.3 1003.2 +13.8
06 22.08 В 2 20 км 3/0
[Ci fib]
+24.0 +16.7 64 +28 +34 душно 1021.5 1003.0
09 22.08 В 2 24 км 6/3 1000 м
[Sc Ci fib]
+26.9 +16.2 52 +30 +38 душно 1020.6 1002.2
12 22.08 В 2 25 км 8/0
[Ac lent Ci fib]
+28.1 +15.2 45 +31 +33 душно 1019.8 1001.5
15 22.08 штиль 0 26 км 6/0
[Ci fib]
+27.5 +15.2 47 +30 +31 жарко 1019.1 1000.9 +28.4
18 22.08 штиль 0 24 км ясно +20.0 +16.0 78 +22 +22 комфорт 1020.2 1001.4
21 22.08 штиль 0 23 км ясно +16.7 +16.0 96 +17 +17 1020.5 1001.5
00 23.08 штиль 0 23 км ясно +16.6 +14.9 90 +16 +16 1020.8 1001.8
03 23.08 штиль 0 23 км ясно +14.1 +13.7 97 +14 +14 1021.4 1002.2 +14.0

 

Местоположение метеостанции Росташи (Саратовская область, Россия): широта 51.87 долгота 43.58 высота над уровнем моря 163 м.

В архиве по умолчанию представлена погода в Росташах за последнюю неделю. Архивные данные за месяц целиком и за предыдущие месяцы, начиная с января 2011 года, Вы можете получить, выбрав интересующий диапазон дат из раскрывающегося списка и нажав кнопку "Ввод!".


*Определитесь, кто Вы:
робот инопланетянин человек

Внимание! Время в таблицах - всемирное. Для получения местного времени необходимо прибавить поправку, которая равна 4 ч.

Смотрите также архив погоды в соседних городах и на ближайших метеорологических станциях:

Погода в Ртищево (Саратовская область, Россия) (44 км)
Погода в Балашове (Саратовская область, Россия) (46 км)
Погода в Калининске (Саратовская область, Россия) (77 км)
Погода в Обловке (Тамбовская область, Россия) (91 км)
Погода в Аткарске (Саратовская область, Россия) (100 км)
Погода в Елани (Волгоградская область, Россия) (103 км)
Погода в Кирсанове (Тамбовская область, Россия) (107 км)
Погода в Колышлее (Пензенская область, Россия) (117 км)
Погода в Борисоглебске (Воронежская область, Россия) (118 км)
Погода в Белинском (Пензенская область, Россия) (123 км)

Пояснения к столбцам:

Ветер - указаны скорость ветра в м/с - средняя за 10 мин, порывы в срок и между сроками (в фигурных скобках) и направление, откуда дует ветер: С - северный, СВ - северо-восточный, В - восточный, ЮВ - юго-восточный, Ю - южный, ЮЗ - юго-западный, З - западный, СЗ - северо-западный.
Видимость - горизонтальная дальность видимости в метрах или километрах. При видимости от 1 до 10 км при отсутствии осадков обычно наблюдается дымка, при ухудшении видимости до 1 км и менее - туман. В сухую погоду видимость может ухудшаться дымом, пылью или мглою.
Явления - указаны атмосферные явления, наблюдавшиеся в срок или в последний час перед сроком; фигурными скобками обозначены явления, наблюдавшиеся между сроками (за 1-3 часа до срока); квадратными скобками обозначены град или гололедные отложения с указанием их диаметра в мм.
Облачность - указаны через наклонную черту общая и нижняя облачность в баллах и высота нижней границы облаков в метрах; квадратными скобками обозначены формы облаков: Ci - перистые, Cs - перисто-слоистые, Cc - перисто-кучевые, Ac - высококучевые, As - высокослоистые, Sc - слоисто-кучевые, Ns - слоисто-дождевые, Cu - кучевые, Cb - кучево-дождевые. Подробнее классификацию облаков см. в Атласе облаков (PDF).
T - Температура воздуха - температура, измеренная на высоте 2 м над землей.
Td - Температура точки росы - температура, при понижении до которой содержащийся в воздухе водяной пар достигнет насыщения.
f - Относительная влажность воздуха - влажноcть воздуха, измеренная на высоте 2 м над землей.
Te - Эффективная температура - температура, которую ощущает одетый по сезону человек в тени. Характеристика душности погоды. При расчете учитывается влияние влажности воздуха и скорости ветра на теплоощущения человека.
Tes - Эффективная температура на солнце - температура, которую ощущает человек, с поправкой на солнечный нагрев. Характеристика знойности погоды. Зависит от высоты солнца над горизонтом, облачности и скорости ветра. Ночью, в пасмурную погоду, а также при ветре 12 м/с и более поправка равна нулю.
P - Атмосферное давление - приведенное к уровню моря атмосферное давление.
Po - Атмосферное давление - измеренное на уровне метеостанции атмосферное давление.
Tmin - Минимальная температура - минимум температуры воздуха на высоте 2 м над землей.
Tmax - Максимальная температура - максимум температуры воздуха на высоте 2 м над землей.
R - Количество осадков - Количество выпавших осадков за период времени, мм. При наведении курсора мыши на число - период времени, за который выпало указанное количество осадков.
R24 - Количество осадков - Количество выпавших осадков за 24 часа, мм.
S - Снежный покров - Высота снежного покрова, см. При наведении курсора мыши на число - состояние снежного покрова и степень покрытия местности в баллах.